Location: Riverside Cemetery
(38.3047°N, 99.7773°W)
Time: 11:14:01
(UTC+00:00)

Cosmos 1937 Rocket - Pass Details

Date: 19 September 2020
Orbit: 747 x 779 km, 74.0° (Epoch: 25 October)

Event Time Altitude Azimuth Distance (km) Brightness Sun altitude
Rises 01:31:19 0° 201° (SSW) 3,235 6.9 -10.6°
Reaches altitude 10° 01:33:42 10° 203° (SSW) 2,308 6.1 -11.0°
Maximum altitude 01:38:56 74° 289° (WNW) 799 3.8 -12.0°
Drops below altitude 10° 01:44:10 10° 15° (NNE) 2,302 6.0 -13.0°
Sets 01:46:32 0° 17° (NNE) 3,226 6.7 -13.5°
